Satellite: METEOR-M Catalog number: 35865 Epoch time: 11173.78103455 Element set: 0481 Inclination: 098.7057 deg RA of node: 228.8375 deg Eccentricity: 0.0003334 Arg of perigee: 026.8580 deg Mean anomaly: 333.2769 deg Mean motion: 14.21839883 rev/day Decay rate: 1.76e-06 rev/day^2 Epoch rev: 09138 Checksum: 324
Satellite: RS-38 Catalog number: 35869 Epoch time: 11173.78042187 Element set: 0474 Inclination: 098.7018 deg RA of node: 228.8720 deg Eccentricity: 0.0005388 Arg of perigee: 022.9464 deg Mean anomaly: 337.1925 deg Mean motion: 14.22014678 rev/day Decay rate: 1.77e-06 rev/day^2 Epoch rev: 09139 Checksum: 332
/EX
participants (1)
-
Ray Hoad